{"data":{"norad_id":65880,"intl_designator":"2025-223AC","name":"STARLINK-35445","alt_names":[],"object_type":"PAYLOAD","status":"ACTIVE","operator":null,"country":"US","launch_date":"2025-10-03","launch_site_code":"AFWTR","launch_vehicle":null,"mission":null,"orbit_class":"UNKNOWN","rcs_meters":null,"size_class":null,"mass_kg":null,"dimensions":null,"purposes":["comms"],"wikipedia_slug":null,"has_3d_model":false,"image_url":null,"decayed_at":null,"tle_current":{"epoch":"2026-09-20T22:50:37.797504Z","epoch_age_seconds":67116,"freshness":"FRESH","line1":"1 65880U 25223AC  26263.95182636  .00040334  00000+0  11998-2 0  9993","line2":"2 65880  53.1594 103.4762 0001465  89.1415 270.9755 15.34364617 54153","mean_motion":15.34364617,"eccentricity":0.0001465,"inclination_deg":53.1594,"raan_deg":103.4762,"arg_perigee_deg":89.1415,"mean_anomaly_deg":270.9755,"bstar":0.0011998,"rev_number":5415,"period_min":93.849922244394,"perigee_km":461.80620945843,"apogee_km":463.81060646296,"semimajor_km":6840.9454079607,"source":"CELESTRAK","updated_at":"2026-09-21T09:00:35.754155Z"}}}